• In Belarus
  • List of Countries
  • For 7 days
  • Water Temperature
  • Weather Map
  • Weather Widgets
  • user-avatar
    Login

    Hourly Weather Ivanovka

    Today, 31 May, Sunday

    Time Temperature Precipitation Wind Pressure Humidity
    00:00 +12°C° 0 mm 3 mps 745 mmHg 93%
    01:00 +12°C° 0 mm 3 mps 745 mmHg 94%
    02:00 +12°C° 0 mm 3 mps 745 mmHg 94%
    03:00 +12°C° 0 mm 2 mps 745 mmHg 95%
    04:00 +12°C° 0 mm 2 mps 745 mmHg 94%
    05:00 +12°C° 0 mm 3 mps 745 mmHg 93%
    06:00 +12°C° 0 mm 3 mps 744 mmHg 92%
    07:00 +13°C° 0 mm 4 mps 744 mmHg 88%
    08:00 +14°C° 0 mm 4 mps 744 mmHg 85%
    09:00 +15°C° 0 mm 5 mps 744 mmHg 82%
    10:00 +15°C° 0.3 mm 5 mps 744 mmHg 81%
    11:00 +15°C° 0.3 mm 5 mps 744 mmHg 80%
    12:00 +16°C° 0.3 mm 6 mps 744 mmHg 80%
    13:00 +16°C° 0.4 mm 6 mps 744 mmHg 77%
    14:00 +17°C° 0.4 mm 6 mps 743 mmHg 74%
    15:00 +19°C° 0.4 mm 6 mps 743 mmHg 71%
    16:00 +17°C° 0.5 mm 6 mps 743 mmHg 74%
    17:00 +17°C° 0.5 mm 5 mps 743 mmHg 77%
    18:00 +17°C° 0.5 mm 5 mps 743 mmHg 80%
    19:00 +15°C° 0.7 mm 4 mps 743 mmHg 84%
    20:00 +14°C° 0.7 mm 4 mps 743 mmHg 87%
    21:00 +13°C° 0.7 mm 3 mps 743 mmHg 91%
    22:00 +12°C° 0 mm 3 mps 743 mmHg 92%
    23:00 +13°C° 0 mm 2 mps 743 mmHg 94%

    Tomorrow, 1 June, Monday

    Time Temperature Precipitation Wind Pressure Humidity
    00:00 +12°C° 0 mm 2 mps 743 mmHg 95%
    01:00 +12°C° 0 mm 1 mps 743 mmHg 95%
    02:00 +12°C° 0 mm 1 mps 743 mmHg 95%
    03:00 +12°C° 0 mm 1 mps 743 mmHg 95%
    04:00 +12°C° 0 mm 1 mps 743 mmHg 94%
    05:00 +13°C° 0 mm 1 mps 743 mmHg 94%
    06:00 +13°C° 0 mm 1 mps 742 mmHg 93%
    07:00 +14°C° 0.1 mm 2 mps 743 mmHg 89%
    08:00 +15°C° 0.1 mm 2 mps 743 mmHg 86%
    09:00 +16°C° 0.1 mm 3 mps 744 mmHg 82%
    10:00 +17°C° 0.7 mm 3 mps 744 mmHg 78%
    11:00 +18°C° 0.7 mm 4 mps 744 mmHg 74%
    12:00 +19°C° 0.7 mm 4 mps 744 mmHg 70%
    13:00 +19°C° 0.6 mm 4 mps 744 mmHg 70%
    14:00 +20°C° 0.6 mm 4 mps 744 mmHg 69%
    15:00 +20°C° 0.6 mm 3 mps 744 mmHg 69%
    16:00 +20°C° 0.9 mm 3 mps 744 mmHg 72%
    17:00 +19°C° 0.9 mm 3 mps 744 mmHg 75%
    18:00 +19°C° 0.9 mm 2 mps 744 mmHg 78%
    19:00 +18°C° 1 mm 3 mps 744 mmHg 81%
    20:00 +17°C° 1 mm 3 mps 744 mmHg 84%
    21:00 +16°C° 1 mm 3 mps 744 mmHg 87%
    22:00 +14°C° 0.2 mm 3 mps 744 mmHg 88%
    23:00 +13°C° 0.2 mm 3 mps 744 mmHg 90%

    Day after tomorrow, 2 June, Tuesday

    Time Temperature Precipitation Wind Pressure Humidity
    00:00 +13°C° 0.2 mm 3 mps 744 mmHg 91%
    01:00 +13°C° 0 mm 3 mps 744 mmHg 91%
    02:00 +13°C° 0 mm 3 mps 744 mmHg 91%
    03:00 +13°C° 0 mm 3 mps 744 mmHg 91%
    04:00 +13°C° 0.3 mm 4 mps 743 mmHg 92%
    05:00 +13°C° 0.3 mm 4 mps 743 mmHg 92%
    06:00 +13°C° 0.3 mm 5 mps 743 mmHg 93%
    07:00 +14°C° 0.4 mm 4 mps 744 mmHg 91%
    08:00 +15°C° 0.4 mm 4 mps 744 mmHg 88%
    09:00 +16°C° 0.4 mm 3 mps 744 mmHg 86%
    10:00 +18°C° 0.6 mm 3 mps 744 mmHg 80%
    11:00 +19°C° 0.6 mm 3 mps 744 mmHg 74%
    12:00 +20°C° 0.6 mm 3 mps 745 mmHg 68%
    13:00 +21°C° 0.8 mm 3 mps 745 mmHg 69%
    14:00 +21°C° 0.8 mm 3 mps 745 mmHg 69%
    15:00 +21°C° 0.8 mm 3 mps 745 mmHg 70%
    16:00 +20°C° 0.5 mm 2 mps 744 mmHg 71%
    17:00 +20°C° 0.5 mm 2 mps 744 mmHg 73%
    18:00 +20°C° 0.5 mm 2 mps 744 mmHg 75%
    19:00 +18°C° 0.1 mm 2 mps 745 mmHg 79%
    20:00 +16°C° 0.1 mm 2 mps 745 mmHg 83%
    21:00 +15°C° 0.1 mm 2 mps 745 mmHg 88%
    22:00 +14°C° 0 mm 2 mps 745 mmHg 89%
    23:00 +13°C° 0 mm 2 mps 745 mmHg 89%

    3 June, Wednesday

    Time Temperature Precipitation Wind Pressure Humidity
    00:00 +13°C° 0 mm 2 mps 745 mmHg 90%
    01:00 +12°C° 0 mm 2 mps 745 mmHg 90%
    02:00 +12°C° 0 mm 2 mps 745 mmHg 91%
    03:00 +10°C° 0 mm 2 mps 746 mmHg 91%
    04:00 +12°C° 0 mm 2 mps 746 mmHg 91%
    05:00 +12°C° 0 mm 2 mps 745 mmHg 90%
    06:00 +13°C° 0 mm 2 mps 745 mmHg 90%
    07:00 +15°C° 0 mm 2 mps 745 mmHg 86%
    08:00 +17°C° 0 mm 2 mps 745 mmHg 82%
    09:00 +18°C° 0 mm 2 mps 745 mmHg 77%
    10:00 +19°C° 0.2 mm 2 mps 745 mmHg 75%
    11:00 +20°C° 0.2 mm 3 mps 745 mmHg 72%
    12:00 +21°C° 0.2 mm 3 mps 745 mmHg 69%
    13:00 +21°C° 0.8 mm 3 mps 745 mmHg 71%
    14:00 +21°C° 0.8 mm 3 mps 744 mmHg 73%
    15:00 +22°C° 0.8 mm 3 mps 744 mmHg 75%
    16:00 +21°C° 0.8 mm 3 mps 743 mmHg 77%
    17:00 +21°C° 0.8 mm 3 mps 743 mmHg 79%
    18:00 +21°C° 0.8 mm 3 mps 743 mmHg 82%
    19:00 +19°C° 0.8 mm 3 mps 743 mmHg 85%
    20:00 +18°C° 0.8 mm 3 mps 742 mmHg 88%
    21:00 +17°C° 0.8 mm 2 mps 742 mmHg 92%
    22:00 +17°C° 0.1 mm 3 mps 742 mmHg 92%
    23:00 +16°C° 0.1 mm 3 mps 742 mmHg 91%

    4 June, Thursday

    Time Temperature Precipitation Wind Pressure Humidity
    00:00 +16°C° 0.1 mm 3 mps 742 mmHg 91%
    01:00 +16°C° 0.3 mm 3 mps 742 mmHg 92%
    02:00 +16°C° 0.3 mm 2 mps 742 mmHg 93%
    03:00 +16°C° 0.3 mm 2 mps 742 mmHg 94%
    04:00 +16°C° 0.5 mm 2 mps 742 mmHg 95%
    05:00 +16°C° 0.5 mm 2 mps 742 mmHg 95%
    06:00 +16°C° 0.5 mm 2 mps 742 mmHg 95%
    07:00 +16°C° 0.1 mm 3 mps 743 mmHg 93%
    08:00 +17°C° 0.1 mm 3 mps 743 mmHg 91%
    09:00 +17°C° 0.1 mm 4 mps 743 mmHg 88%
    10:00 +18°C° 0 mm 4 mps 743 mmHg 83%
    11:00 +19°C° 0 mm 4 mps 744 mmHg 78%
    12:00 +20°C° 0 mm 4 mps 744 mmHg 73%
    13:00 +20°C° 0.1 mm 4 mps 744 mmHg 71%
    14:00 +21°C° 0.1 mm 4 mps 744 mmHg 68%
    15:00 +21°C° 0.1 mm 4 mps 744 mmHg 65%
    16:00 +21°C° 0.1 mm 4 mps 745 mmHg 67%
    17:00 +20°C° 0.1 mm 4 mps 745 mmHg 69%
    18:00 +20°C° 0.1 mm 3 mps 745 mmHg 71%
    19:00 +18°C° 0 mm 3 mps 745 mmHg 75%
    20:00 +17°C° 0 mm 3 mps 745 mmHg 79%
    21:00 +15°C° 0 mm 2 mps 745 mmHg 83%
    22:00 +15°C° 0 mm 2 mps 746 mmHg 84%
    23:00 +14°C° 0 mm 2 mps 746 mmHg 85%

    5 June, Friday

    Time Temperature Precipitation Wind Pressure Humidity
    00:00 +13°C° 0 mm 2 mps 746 mmHg 87%
    01:00 +13°C° 0 mm 2 mps 746 mmHg 88%
    02:00 +13°C° 0 mm 2 mps 746 mmHg 89%
    03:00 +11°C° 0 mm 3 mps 746 mmHg 90%
    04:00 +12°C° 0 mm 3 mps 746 mmHg 89%
    05:00 +13°C° 0 mm 3 mps 746 mmHg 88%
    06:00 +13°C° 0 mm 3 mps 746 mmHg 87%
    07:00 +15°C° 0 mm 4 mps 746 mmHg 82%
    08:00 +17°C° 0 mm 4 mps 746 mmHg 78%
    09:00 +19°C° 0 mm 5 mps 746 mmHg 73%
    10:00 +19°C° 0.4 mm 5 mps 746 mmHg 71%
    11:00 +20°C° 0.4 mm 6 mps 746 mmHg 68%
    12:00 +21°C° 0.4 mm 6 mps 746 mmHg 66%
    13:00 +21°C° 0.8 mm 6 mps 746 mmHg 67%
    14:00 +21°C° 0.8 mm 6 mps 746 mmHg 68%
    15:00 +21°C° 0.8 mm 6 mps 746 mmHg 68%
    16:00 +20°C° 0.6 mm 5 mps 746 mmHg 72%
    17:00 +20°C° 0.6 mm 5 mps 746 mmHg 76%
    18:00 +19°C° 0.6 mm 4 mps 746 mmHg 80%
    19:00 +18°C° 0.3 mm 4 mps 746 mmHg 82%
    20:00 +17°C° 0.3 mm 4 mps 746 mmHg 85%
    21:00 +15°C° 0.3 mm 4 mps 746 mmHg 88%
    22:00 +15°C° 0.1 mm 5 mps 745 mmHg 88%
    23:00 +15°C° 0.1 mm 5 mps 745 mmHg 88%
    Show more